FENGYUN 1C DEB

Satellite information

Favourite Embed

Satellite Type and Status

DEBRISIN ORBIT

Key statistics

Satellite FENGYUN 1C DEB at a glance.

Uptime

9665

Days in orbit

Revolutions

≈ 14.0

Per day

Orbit

SSO

Sun Synchronous Orbit

Inclination

99.3

Latest

Satellite identification and parameters

Extended collection of information and parameters for FENGYUN 1C DEB.

Object identification

Identified? True

Debris? True

Object name: FENGYUN 1C DEB

International designator: 1999-025EVY

Object number (NORAD): 38832

Object ID (CCSDS): 38832

Country: PEOPLES REPUBLIC OF CHINA (PRC)

Current information (Y/N): Y

RCS size: SMALL

Orbital parameters

Period: 102.548 minutes

Inclination: 99.272 deg

SMA: 7257.333 km

Apoapsis: 941.715 km

Periapsis: 816.681 km

RAAN: 334.1423 deg

Eccentricy: 0.0086143

Argument of periapsis: 195.9712 deg

Mean anomaly: 163.8734 deg

Mean motion: 14.04226659 rev/day

Mean motion (dot): 0.00002859 rev/day2

B* drag term: 0.0017705 1/REarth

Two-line elements (TLE)

Creation date: Oct. 18, 2025, 8:36 a.m.

Reference frame: TEME

Reference center: EARTH

Epoch: Oct. 17, 2025, 9:44 p.m. UTC

TLE line 0: 0 FENGYUN 1C DEB

TLE line 1: 1 38832U 99025EVY 25290.90619712 .00002859 00000-0 17705-2 0 9998

TLE line 2: 2 38832 99.2720 334.1423 0086143 195.9712 163.8734 14.04226659629740

Live tracking on map

Real-time ground track for satellite FENGYUN 1C DEB.

In-orbit conjunctions

A list of the most updated potential collisions computed for object FENGYUN 1C DEB.

Target Orbit TCA Probability of collision Miss distance Type
COSMOS 1375 DEB LEO 2025-10-24 18:13:05 0.000111176 117.0 (m) DEBRIS
SL-3 R/B LEO 2025-10-05 13:29:28 0.000231459 135.0 (m) ROCKET BODY
COSMOS 397 DEB * LEO 2025-05-05 08:12:30 0.0001029692 422.0 (m) DEBRIS
SL-16 R/B LEO 2025-01-26 14:00:56 0.0001465609 356.0 (m) ROCKET BODY

Associated space launch

Chinese polar orbiting meteorological satellite

FENGYUN 1C DEB was lifted into orbit during the mission ‘Long March 4B | Feng Yun 1C’, on board a Long March 4B space rocket.

The launch took place on May 10, 1999, 1:33 a.m. from Launch Complex 7.

For more information about the launch, click the button.

Launch to space Long March 4B | Feng Yun 1C
Long March 4B | Feng Yun 1C

Agency: N/A

Status: Launch Successful

Launch date: May 10, 1999, 1:33 a.m. UTC

Rocket: Long March 4B

Launch pad: Launch Complex 7

Location: Taiyuan Satellite Launch Center, People's Republic of China

...

Latest news about this satellite

There are no fresh news available about this satellite. Check back as we update our databases every day.


Newsletter sign-up

Weekly statistics, charts and insights to help you stay on top of the space industry.